EDW29Y LSZH-EGPH

Flight info

Callsign EDW29Y
Flight time 1h 51m
Altitude 38000
Route VEBIT T10 TORPA DCT REKLA DCT RLP DCT ROTSI DCT KOTUN DCT AMAXA DCT VESAN DCT RATUK DCT SOVAT L613 LEHOC DCT INPIP
Aircraft A20N/M-SDE2E3FGHIRWXY/LB1

Departure

Time 2026-05-05 07:10
Airport Zürich Airport (LSZH)

Arrival

Time 2026-05-05 09:01
Airport Edinburgh Airport (EGPH)
Time Latitude Longitude Altitude Speed Heading
2026-05-05 06:55 47.45433 8.55748 1416 ft 0 kts 185°
2026-05-05 07:04 47.45450 8.55750 1416 ft 3 kts 185°
2026-05-05 07:04 47.45468 8.55753 1413 ft 3 kts 185°
2026-05-05 07:04 47.45486 8.55755 1412 ft 2 kts 165°
2026-05-05 07:05 47.45499 8.55741 1413 ft 2 kts 95°
2026-05-05 07:05 47.45499 8.55738 1412 ft 0 kts 94°
2026-05-05 07:06 47.45499 8.55740 1413 ft 2 kts 94°
2026-05-05 07:06 47.45499 8.55790 1415 ft 10 kts 89°
2026-05-05 07:07 47.45497 8.55893 1410 ft 10 kts 94°
2026-05-05 07:07 47.45492 8.56004 1413 ft 13 kts 94°
2026-05-05 07:07 47.45480 8.56154 1410 ft 18 kts 96°
2026-05-05 07:07 47.45525 8.56299 1417 ft 14 kts 49°
2026-05-05 07:08 47.45590 8.56429 1421 ft 22 kts 71°
2026-05-05 07:08 47.45584 8.56658 1421 ft 22 kts 96°
2026-05-05 07:08 47.45567 8.56868 1423 ft 20 kts 99°
2026-05-05 07:08 47.45607 8.57019 1427 ft 15 kts 10°
2026-05-05 07:09 47.45664 8.57007 1428 ft 2 kts 284°
2026-05-05 07:09 47.45666 8.56965 1427 ft 15 kts 275°
2026-05-05 07:09 47.45707 8.56381 1422 ft 98 kts 276°
2026-05-05 07:09 47.45806 8.54980 1520 ft 161 kts 276°
2026-05-05 07:10 47.45914 8.53301 2341 ft 166 kts 275°
2026-05-05 07:10 47.46039 8.51542 3083 ft 185 kts 276°
2026-05-05 07:10 47.46184 8.49492 3456 ft 214 kts 274°
2026-05-05 07:10 47.46006 8.47248 4025 ft 230 kts 249°
2026-05-05 07:11 47.45108 8.45102 4466 ft 260 kts 231°
2026-05-05 07:11 47.43911 8.43017 5308 ft 269 kts 228°
2026-05-05 07:11 47.42673 8.40932 6401 ft 271 kts 227°
2026-05-05 07:11 47.41433 8.38826 7488 ft 272 kts 228°
2026-05-05 07:12 47.40194 8.36703 8548 ft 274 kts 228°
2026-05-05 07:12 47.38976 8.34524 9570 ft 277 kts 233°
2026-05-05 07:12 47.38000 8.32036 10397 ft 287 kts 240°
2026-05-05 07:12 47.37035 8.29312 10797 ft 311 kts 240°
2026-05-05 07:13 47.36018 8.26411 11470 ft 323 kts 240°
2026-05-05 07:13 47.34981 8.23455 12444 ft 325 kts 240°
2026-05-05 07:13 47.33940 8.20503 13496 ft 325 kts 239°
2026-05-05 07:13 47.32891 8.17540 14412 ft 327 kts 239°
2026-05-05 07:14 47.31824 8.14541 15189 ft 333 kts 239°
2026-05-05 07:14 47.30743 8.11497 15974 ft 338 kts 239°
2026-05-05 07:14 47.29645 8.08408 16755 ft 343 kts 239°
2026-05-05 07:14 47.28534 8.05270 17542 ft 348 kts 240°
2026-05-05 07:15 47.27621 8.01941 18291 ft 355 kts 250°
2026-05-05 07:15 47.27227 7.98307 18939 ft 366 kts 265°
2026-05-05 07:15 47.27315 7.94530 19603 ft 372 kts 271°
2026-05-05 07:15 47.27603 7.90713 20247 ft 378 kts 274°
2026-05-05 07:16 47.27995 7.86866 20896 ft 382 kts 275°
2026-05-05 07:16 47.28424 7.82985 21551 ft 386 kts 275°
2026-05-05 07:16 47.28855 7.79061 22195 ft 390 kts 275°
2026-05-05 07:16 47.29273 7.75100 22822 ft 394 kts 275°
2026-05-05 07:17 47.29677 7.71090 23450 ft 397 kts 275°
2026-05-05 07:17 47.30069 7.67044 23971 ft 401 kts 274°
2026-05-05 07:17 47.30598 7.62991 24456 ft 407 kts 281°
2026-05-05 07:17 47.31349 7.58944 24946 ft 411 kts 282°
2026-05-05 07:18 47.32161 7.54943 25440 ft 415 kts 283°
2026-05-05 07:18 47.33033 7.50862 25905 ft 419 kts 284°
2026-05-05 07:18 47.33929 7.46764 26368 ft 422 kts 284°
2026-05-05 07:18 47.34841 7.42616 26674 ft 429 kts 284°
2026-05-05 07:19 47.35763 7.38412 27111 ft 432 kts 284°
2026-05-05 07:19 47.36682 7.34203 27650 ft 432 kts 284°
2026-05-05 07:19 47.37599 7.29974 28138 ft 434 kts 283°
2026-05-05 07:19 47.38517 7.25719 28564 ft 437 kts 283°
2026-05-05 07:20 47.39437 7.21434 28985 ft 439 kts 283°
2026-05-05 07:20 47.40350 7.17120 29398 ft 441 kts 281°
2026-05-05 07:20 47.41092 7.12721 29785 ft 442 kts 278°
2026-05-05 07:20 47.41786 7.08287 30162 ft 444 kts 278°
2026-05-05 07:21 47.42458 7.03814 30441 ft 448 kts 277°
2026-05-05 07:21 47.43118 6.99308 30769 ft 450 kts 277°
2026-05-05 07:21 47.43554 6.96313 31012 ft 450 kts 277°
2026-05-05 07:21 47.44208 6.91803 31509 ft 448 kts 276°
2026-05-05 07:22 47.44857 6.87323 32027 ft 445 kts 276°
2026-05-05 07:22 47.45502 6.82871 32509 ft 442 kts 276°
2026-05-05 07:22 47.46144 6.78437 32990 ft 440 kts 275°
2026-05-05 07:22 47.46781 6.74024 33464 ft 438 kts 275°
2026-05-05 07:23 47.47414 6.69624 33906 ft 437 kts 275°
2026-05-05 07:23 47.47931 6.65231 34273 ft 432 kts 271°
2026-05-05 07:23 47.48311 6.60831 34574 ft 431 kts 270°
2026-05-05 07:23 47.48654 6.56433 34863 ft 430 kts 270°
2026-05-05 07:24 47.48976 6.52040 35161 ft 429 kts 270°
2026-05-05 07:24 47.49286 6.47654 35443 ft 429 kts 270°
2026-05-05 07:24 47.49591 6.43273 35726 ft 428 kts 270°
2026-05-05 07:24 47.49894 6.38898 35999 ft 428 kts 270°
2026-05-05 07:25 47.50198 6.34519 36253 ft 428 kts 271°
2026-05-05 07:25 47.50502 6.30147 36511 ft 427 kts 271°
2026-05-05 07:25 47.50806 6.25778 36791 ft 427 kts 271°
2026-05-05 07:25 47.51108 6.21406 37007 ft 428 kts 271°
2026-05-05 07:26 47.51409 6.17029 37232 ft 428 kts 272°
2026-05-05 07:26 47.51709 6.12655 37474 ft 427 kts 272°
2026-05-05 07:26 47.52007 6.08288 37721 ft 427 kts 272°
2026-05-05 07:26 47.52303 6.03919 37875 ft 428 kts 272°
2026-05-05 07:27 47.52595 5.99588 37879 ft 429 kts 272°
2026-05-05 07:27 47.53341 5.90854 37884 ft 430 kts 279°
2026-05-05 07:28 47.55573 5.82600 37888 ft 439 kts 298°
2026-05-05 07:28 47.59404 5.75470 37884 ft 445 kts 308°
2026-05-05 07:29 47.63613 5.68698 37881 ft 447 kts 309°
2026-05-05 07:29 47.67865 5.61970 37885 ft 447 kts 309°
2026-05-05 07:30 47.72086 5.55201 37883 ft 447 kts 309°
2026-05-05 07:30 47.78376 5.44986 37888 ft 447 kts 309°
2026-05-05 07:31 47.82565 5.38148 37878 ft 447 kts 309°
2026-05-05 07:31 47.86751 5.31302 37879 ft 447 kts 309°
2026-05-05 07:32 47.90936 5.24442 37876 ft 447 kts 309°
2026-05-05 07:32 47.95113 5.17578 37881 ft 447 kts 309°
2026-05-05 07:33 47.99286 5.10701 37879 ft 447 kts 309°
2026-05-05 07:33 48.03452 5.03818 37869 ft 447 kts 309°
2026-05-05 07:34 48.07619 4.96915 37876 ft 447 kts 309°
2026-05-05 07:34 48.11783 4.90000 37874 ft 447 kts 309°
2026-05-05 07:35 48.15941 4.83075 37876 ft 447 kts 309°
2026-05-05 07:35 48.20096 4.76139 37864 ft 447 kts 309°
2026-05-05 07:36 48.24245 4.69195 37882 ft 447 kts 309°
2026-05-05 07:36 48.28394 4.62231 37870 ft 448 kts 309°
2026-05-05 07:37 48.32518 4.55290 37870 ft 448 kts 309°
2026-05-05 07:37 48.36667 4.48290 37868 ft 449 kts 308°
2026-05-05 07:38 48.40815 4.41272 37866 ft 449 kts 308°
2026-05-05 07:38 48.44966 4.34232 37865 ft 449 kts 308°
2026-05-05 07:39 48.49109 4.27185 37867 ft 450 kts 308°
2026-05-05 07:39 48.53258 4.20107 37877 ft 450 kts 308°
2026-05-05 07:40 48.57405 4.13017 37879 ft 451 kts 308°
2026-05-05 07:40 48.61549 4.05913 37881 ft 450 kts 308°
2026-05-05 07:41 48.65685 3.98803 37881 ft 450 kts 308°
2026-05-05 07:41 48.69790 3.91726 37880 ft 450 kts 308°
2026-05-05 07:42 48.74353 3.85195 37881 ft 454 kts 319°
2026-05-05 07:42 48.79416 3.79441 37877 ft 455 kts 321°
2026-05-05 07:43 48.84566 3.73834 37872 ft 456 kts 322°
2026-05-05 07:43 48.89722 3.68232 37872 ft 456 kts 321°
2026-05-05 07:44 48.94866 3.62599 37874 ft 456 kts 321°
2026-05-05 07:44 49.00001 3.56943 37872 ft 455 kts 321°
2026-05-05 07:45 49.05130 3.51274 37886 ft 456 kts 321°
2026-05-05 07:45 49.10255 3.45596 37880 ft 455 kts 321°
2026-05-05 07:46 49.15379 3.39905 37877 ft 455 kts 321°
2026-05-05 07:46 49.20498 3.34205 37880 ft 455 kts 321°
2026-05-05 07:47 49.25619 3.28489 37884 ft 455 kts 321°
2026-05-05 07:47 49.30735 3.22763 37876 ft 456 kts 321°
2026-05-05 07:48 49.35848 3.17024 37877 ft 456 kts 321°
2026-05-05 07:48 49.40962 3.11270 37895 ft 456 kts 321°
2026-05-05 07:49 49.46040 3.05541 37883 ft 456 kts 321°
2026-05-05 07:49 49.51150 2.99762 37894 ft 456 kts 321°
2026-05-05 07:50 49.56255 2.93972 37883 ft 455 kts 320°
2026-05-05 07:50 49.61350 2.88176 37883 ft 455 kts 320°
2026-05-05 07:51 49.66444 2.82369 37889 ft 455 kts 320°
2026-05-05 07:51 49.71533 2.76550 37907 ft 455 kts 320°
2026-05-05 07:52 49.76614 2.70726 37915 ft 454 kts 320°
2026-05-05 07:52 49.81723 2.64985 37899 ft 454 kts 321°
2026-05-05 07:53 49.86862 2.59300 37904 ft 454 kts 321°
2026-05-05 07:53 49.92002 2.53605 37908 ft 454 kts 321°
2026-05-05 07:54 49.97131 2.47891 37909 ft 453 kts 321°
2026-05-05 07:54 50.02246 2.42170 37912 ft 453 kts 321°
2026-05-05 07:55 50.07350 2.36444 37912 ft 452 kts 321°
2026-05-05 07:55 50.12452 2.30705 37913 ft 452 kts 321°
2026-05-05 07:56 50.17551 2.24954 37920 ft 452 kts 321°
2026-05-05 07:56 50.22643 2.19197 37924 ft 452 kts 321°
2026-05-05 07:57 50.27725 2.13434 37922 ft 451 kts 321°
2026-05-05 07:57 50.32767 2.07703 37925 ft 451 kts 321°
2026-05-05 07:58 50.37816 2.01873 37925 ft 450 kts 319°
2026-05-05 07:58 50.42594 1.95571 37931 ft 448 kts 316°
2026-05-05 07:59 50.47250 1.89091 37930 ft 447 kts 315°
2026-05-05 07:59 50.51904 1.82631 37940 ft 446 kts 316°
2026-05-05 08:00 50.56569 1.76209 37935 ft 446 kts 316°
2026-05-05 08:00 50.61239 1.69792 37939 ft 445 kts 316°
2026-05-05 08:01 50.65902 1.63371 37941 ft 445 kts 316°
2026-05-05 08:01 50.70545 1.56953 37950 ft 443 kts 316°
2026-05-05 08:02 50.75173 1.50533 37941 ft 443 kts 316°
2026-05-05 08:02 50.79796 1.44103 37952 ft 443 kts 316°
2026-05-05 08:03 50.84417 1.37664 37952 ft 443 kts 316°
2026-05-05 08:03 50.89040 1.31206 37959 ft 443 kts 316°
2026-05-05 08:04 50.93650 1.24749 37962 ft 442 kts 316°
2026-05-05 08:04 50.98250 1.18287 37965 ft 442 kts 316°
2026-05-05 08:05 51.02848 1.11811 37966 ft 442 kts 316°
2026-05-05 08:05 51.07589 1.05586 37966 ft 443 kts 321°
2026-05-05 08:06 51.12610 0.99883 37966 ft 444 kts 322°
2026-05-05 08:06 51.17679 0.94274 37978 ft 444 kts 323°
2026-05-05 08:07 51.22747 0.88673 38010 ft 443 kts 323°
2026-05-05 08:07 51.27766 0.83097 38022 ft 442 kts 323°
2026-05-05 08:08 51.32812 0.77465 38025 ft 442 kts 323°
2026-05-05 08:08 51.37844 0.71831 37985 ft 440 kts 323°
2026-05-05 08:09 51.42851 0.66208 37989 ft 439 kts 323°
2026-05-05 08:09 51.47848 0.60581 37992 ft 439 kts 323°
2026-05-05 08:10 51.52846 0.54939 37993 ft 439 kts 323°
2026-05-05 08:10 51.57842 0.49283 37994 ft 439 kts 323°
2026-05-05 08:11 51.62846 0.43603 37990 ft 441 kts 323°
2026-05-05 08:11 51.67860 0.37896 37987 ft 442 kts 323°
2026-05-05 08:12 51.72028 0.33141 37990 ft 442 kts 323°
2026-05-05 08:12 51.77042 0.27404 37992 ft 442 kts 323°
2026-05-05 08:13 51.82051 0.21658 37997 ft 442 kts 323°
2026-05-05 08:13 51.87060 0.15896 37993 ft 442 kts 323°
2026-05-05 08:14 51.92067 0.10120 37993 ft 442 kts 323°
2026-05-05 08:14 51.97072 0.04329 37993 ft 442 kts 323°
2026-05-05 08:15 52.02106 -0.01405 38000 ft 443 kts 327°
2026-05-05 08:15 52.07427 -0.06320 37996 ft 443 kts 330°
2026-05-05 08:16 52.12841 -0.11090 37997 ft 443 kts 330°
2026-05-05 08:16 52.18271 -0.15830 37996 ft 443 kts 330°
2026-05-05 08:17 52.23696 -0.20588 37997 ft 443 kts 330°
2026-05-05 08:17 52.29118 -0.25370 38005 ft 443 kts 330°
2026-05-05 08:18 52.34531 -0.30163 38002 ft 442 kts 330°
2026-05-05 08:18 52.39936 -0.34963 37997 ft 442 kts 330°
2026-05-05 08:19 52.45338 -0.39774 37996 ft 442 kts 330°
2026-05-05 08:19 52.50740 -0.44598 37994 ft 442 kts 330°
2026-05-05 08:20 52.56135 -0.49429 37993 ft 442 kts 330°
2026-05-05 08:20 52.61526 -0.54269 37994 ft 441 kts 330°
2026-05-05 08:21 52.66912 -0.59119 37993 ft 441 kts 330°
2026-05-05 08:21 52.72296 -0.63981 37998 ft 441 kts 330°
2026-05-05 08:22 52.77678 -0.68855 38020 ft 441 kts 330°
2026-05-05 08:22 52.83022 -0.73709 38020 ft 441 kts 330°
2026-05-05 08:23 52.88400 -0.78607 38018 ft 441 kts 330°
2026-05-05 08:23 52.93764 -0.83507 38019 ft 441 kts 330°
2026-05-05 08:24 52.99148 -0.88438 38021 ft 441 kts 329°
2026-05-05 08:24 53.04516 -0.93368 38019 ft 441 kts 329°
2026-05-05 08:25 53.09882 -0.98307 38019 ft 441 kts 329°
2026-05-05 08:25 53.15247 -1.03260 38023 ft 441 kts 329°
2026-05-05 08:26 53.20604 -1.08219 38022 ft 440 kts 329°
2026-05-05 08:26 53.25956 -1.13188 38032 ft 440 kts 329°
2026-05-05 08:27 53.31287 -1.18151 38024 ft 437 kts 329°
2026-05-05 08:27 53.36596 -1.23110 38024 ft 437 kts 329°
2026-05-05 08:28 53.41901 -1.28078 38026 ft 437 kts 329°
2026-05-05 08:28 53.47167 -1.33032 38026 ft 437 kts 329°
2026-05-05 08:29 53.52463 -1.38032 38027 ft 437 kts 329°
2026-05-05 08:30 53.60406 -1.45557 38024 ft 437 kts 329°
2026-05-05 08:30 53.65697 -1.50587 38026 ft 437 kts 329°
2026-05-05 08:31 53.70988 -1.55632 38022 ft 437 kts 328°
2026-05-05 08:31 53.75843 -1.61695 38021 ft 432 kts 318°
2026-05-05 08:32 53.80338 -1.68402 38018 ft 430 kts 316°
2026-05-05 08:32 53.84754 -1.75234 38021 ft 430 kts 316°
2026-05-05 08:33 53.89163 -1.82088 38021 ft 430 kts 316°
2026-05-05 08:33 53.93578 -1.88942 38032 ft 430 kts 316°
2026-05-05 08:34 53.97994 -1.95801 38041 ft 430 kts 316°
2026-05-05 08:34 54.02579 -2.02304 38033 ft 430 kts 325°
2026-05-05 08:35 54.07674 -2.07616 38034 ft 430 kts 327°
2026-05-05 08:35 54.12787 -2.12774 38037 ft 430 kts 327°
2026-05-05 08:36 54.17965 -2.17988 38038 ft 429 kts 327°
2026-05-05 08:36 54.23098 -2.23167 38043 ft 428 kts 327°
2026-05-05 08:36 54.25628 -2.25724 37806 ft 427 kts 327°
2026-05-05 08:37 54.28184 -2.28311 37533 ft 427 kts 327°
2026-05-05 08:37 54.30736 -2.30899 37260 ft 427 kts 327°
2026-05-05 08:37 54.33287 -2.33489 36999 ft 427 kts 327°
2026-05-05 08:37 54.35840 -2.36085 36729 ft 427 kts 327°
2026-05-05 08:38 54.38392 -2.38683 36461 ft 427 kts 327°
2026-05-05 08:38 54.40942 -2.41283 36208 ft 427 kts 327°
2026-05-05 08:38 54.43492 -2.43887 35962 ft 427 kts 327°
2026-05-05 08:38 54.46038 -2.46490 35578 ft 424 kts 327°
2026-05-05 08:39 54.48574 -2.49087 34952 ft 426 kts 326°
2026-05-05 08:39 54.51121 -2.51701 34285 ft 427 kts 326°
2026-05-05 08:39 54.53681 -2.54331 33543 ft 429 kts 326°
2026-05-05 08:39 54.56248 -2.56972 32800 ft 430 kts 326°
2026-05-05 08:40 54.58819 -2.59620 32095 ft 431 kts 326°
2026-05-05 08:40 54.61389 -2.62271 31532 ft 428 kts 326°
2026-05-05 08:40 54.63929 -2.64893 31059 ft 423 kts 326°
2026-05-05 08:40 54.66441 -2.67491 30529 ft 420 kts 326°
2026-05-05 08:41 54.68941 -2.70082 29962 ft 417 kts 326°
2026-05-05 08:41 54.71420 -2.72655 29407 ft 413 kts 326°
2026-05-05 08:41 54.73870 -2.75200 28907 ft 409 kts 325°
2026-05-05 08:41 54.76296 -2.77724 28371 ft 405 kts 325°
2026-05-05 08:42 54.78697 -2.80226 27864 ft 401 kts 325°
2026-05-05 08:42 54.81081 -2.82715 27323 ft 398 kts 325°
2026-05-05 08:42 54.83441 -2.85182 26799 ft 395 kts 325°
2026-05-05 08:42 54.85757 -2.87607 26302 ft 392 kts 325°
2026-05-05 08:43 54.88131 -2.89859 25960 ft 387 kts 330°
2026-05-05 08:43 54.90609 -2.91772 25291 ft 391 kts 333°
2026-05-05 08:43 54.93119 -2.93590 24724 ft 391 kts 333°
2026-05-05 08:43 54.95628 -2.95392 24190 ft 390 kts 334°
2026-05-05 08:44 54.98129 -2.97194 23677 ft 388 kts 334°
2026-05-05 08:44 55.00620 -2.98994 23062 ft 387 kts 334°
2026-05-05 08:44 55.03091 -3.00786 22520 ft 383 kts 334°
2026-05-05 08:44 55.05536 -3.02561 22008 ft 378 kts 334°
2026-05-05 08:45 55.07952 -3.04320 21497 ft 374 kts 334°
2026-05-05 08:45 55.10347 -3.06066 20985 ft 371 kts 334°
2026-05-05 08:45 55.12713 -3.07795 20476 ft 367 kts 334°
2026-05-05 08:45 55.15050 -3.09503 20115 ft 360 kts 334°
2026-05-05 08:46 55.17351 -3.11187 19502 ft 360 kts 334°
2026-05-05 08:46 55.19665 -3.12887 18850 ft 362 kts 334°
2026-05-05 08:46 55.21983 -3.14591 18271 ft 361 kts 334°
2026-05-05 08:46 55.24293 -3.16290 17656 ft 359 kts 334°
2026-05-05 08:47 55.26588 -3.17980 17141 ft 355 kts 334°
2026-05-05 08:47 55.28830 -3.19635 16830 ft 345 kts 333°
2026-05-05 08:47 55.30918 -3.21530 16565 ft 332 kts 327°
2026-05-05 08:47 55.32861 -3.23565 16390 ft 319 kts 325°
2026-05-05 08:48 55.34717 -3.25561 16211 ft 308 kts 325°
2026-05-05 08:48 55.36527 -3.27517 15827 ft 304 kts 325°
2026-05-05 08:48 55.38328 -3.29465 15396 ft 303 kts 325°
2026-05-05 08:48 55.40115 -3.31396 14985 ft 300 kts 326°
2026-05-05 08:49 55.41865 -3.33288 14574 ft 297 kts 326°
2026-05-05 08:49 55.43619 -3.35184 14182 ft 295 kts 326°
2026-05-05 08:49 55.45365 -3.37073 13781 ft 293 kts 326°
2026-05-05 08:49 55.47095 -3.38949 13295 ft 292 kts 326°
2026-05-05 08:50 55.48818 -3.40816 12861 ft 290 kts 326°
2026-05-05 08:50 55.50532 -3.42676 12425 ft 288 kts 326°
2026-05-05 08:50 55.52235 -3.44526 11981 ft 287 kts 326°
2026-05-05 08:50 55.53927 -3.46366 11565 ft 285 kts 327°
2026-05-05 08:51 55.55613 -3.48200 11143 ft 284 kts 327°
2026-05-05 08:51 55.57285 -3.50022 10745 ft 282 kts 327°
2026-05-05 08:51 55.58950 -3.51837 10335 ft 281 kts 327°
2026-05-05 08:51 55.60606 -3.53644 9950 ft 279 kts 327°
2026-05-05 08:52 55.62250 -3.55440 9482 ft 277 kts 327°
2026-05-05 08:52 55.63886 -3.57230 9021 ft 276 kts 327°
2026-05-05 08:52 55.65512 -3.59010 8583 ft 274 kts 327°
2026-05-05 08:52 55.67130 -3.60782 8139 ft 273 kts 328°
2026-05-05 08:53 55.68737 -3.62545 7703 ft 271 kts 328°
2026-05-05 08:53 55.70329 -3.64293 7337 ft 267 kts 328°
2026-05-05 08:53 55.71910 -3.66030 6887 ft 267 kts 328°
2026-05-05 08:53 55.73465 -3.67741 6508 ft 265 kts 327°
2026-05-05 08:54 55.75023 -3.69456 6043 ft 265 kts 328°
2026-05-05 08:54 55.76587 -3.71180 5610 ft 263 kts 328°
2026-05-05 08:54 55.78107 -3.72857 5454 ft 251 kts 328°
2026-05-05 08:54 55.79627 -3.74209 5294 ft 240 kts 348°
2026-05-05 08:55 55.81218 -3.73906 5198 ft 225 kts 22°
2026-05-05 08:55 55.82514 -3.72541 5075 ft 210 kts 36°
2026-05-05 08:55 55.83525 -3.70796 4916 ft 198 kts 51°
2026-05-05 08:55 55.84272 -3.68793 4647 ft 192 kts 57°
2026-05-05 08:56 55.84948 -3.66782 4295 ft 187 kts 58°
2026-05-05 08:56 55.85617 -3.64806 3889 ft 186 kts 56°
2026-05-05 08:56 55.86286 -3.62849 3564 ft 184 kts 54°
2026-05-05 08:56 55.86950 -3.60917 3313 ft 180 kts 55°
2026-05-05 08:57 55.87566 -3.59116 3152 ft 162 kts 55°
2026-05-05 08:57 55.88110 -3.57518 3043 ft 141 kts 54°
2026-05-05 08:57 55.88593 -3.56099 2821 ft 130 kts 54°
2026-05-05 08:57 55.89049 -3.54760 2522 ft 125 kts 54°
2026-05-05 08:58 55.89509 -3.53412 2131 ft 128 kts 54°
2026-05-05 08:58 55.89965 -3.52068 1914 ft 127 kts 55°
2026-05-05 08:58 55.90425 -3.50714 1736 ft 128 kts 54°
2026-05-05 08:58 55.90885 -3.49359 1552 ft 128 kts 54°
2026-05-05 08:59 55.91347 -3.48000 1377 ft 128 kts 54°
2026-05-05 08:59 55.91807 -3.46644 1194 ft 127 kts 53°
2026-05-05 08:59 55.92267 -3.45292 1016 ft 128 kts 57°
2026-05-05 08:59 55.92724 -3.43944 835 ft 126 kts 56°
2026-05-05 09:00 55.93180 -3.42601 670 ft 127 kts 56°
2026-05-05 09:00 55.93629 -3.41283 533 ft 127 kts 57°
2026-05-05 09:00 55.94083 -3.39931 310 ft 124 kts 57°
2026-05-05 09:00 55.94527 -3.38635 149 ft 120 kts 58°
2026-05-05 09:01 55.94928 -3.37463 111 ft 101 kts 58°
2026-05-05 09:01 55.95197 -3.36663 112 ft 49 kts 58°
2026-05-05 09:01 55.95250 -3.36421 105 ft 12 kts 130°
2026-05-05 09:01 55.95184 -3.36335 106 ft 11 kts 149°
2026-05-05 09:02 55.95109 -3.36356 108 ft 11 kts 217°
2026-05-05 09:02 55.95043 -3.36400 109 ft 10 kts 199°
2026-05-05 09:02 55.94983 -3.36404 110 ft 9 kts 149°
2026-05-05 09:02 55.94950 -3.36367 110 ft 2 kts 147°
2026-05-05 09:03 55.94940 -3.36356 110 ft 0 kts 147°